This is the latest recevied weather packets stored in our database for station/object IV3CGM-1. If no packets are shown the sender has not sent any weather packets the latest 1 day(s).
| Time | Temp. | Humidity | Pressure | Rain* | Wind** | Luminosity | Snow |
|---|---|---|---|---|---|---|---|
| 1778026003 | 8.33° C | 99% | - | - | 1.79 m/s, 180° | - | - |
| 1778025426 | 8.33° C | 99% | - | - | 3.13 m/s, 167° | - | - |
| 1778024776 | 8.33° C | 99% | - | - | 2.24 m/s, 198° | - | - |
| 1778024178 | 8.33° C | 99% | - | - | 2.24 m/s, 180° | - | - |
| 1778023545 | 8.33° C | 99% | - | - | 2.68 m/s, 174° | - | - |
| 1778022907 | 8.33° C | 99% | - | - | 2.68 m/s, 167° | - | - |
| 1778022329 | 8.33° C | 99% | - | - | 2.68 m/s, 138° | - | - |
| 1778021741 | 8.33° C | 99% | - | - | 2.68 m/s, 217° | - | - |
| 1778021178 | 8.33° C | 99% | - | - | 5.36 m/s, 174° | - | - |
| 1778020555 | 8.33° C | 99% | - | - | 3.13 m/s, 174° | - | - |
| 1778019978 | 8.33° C | 99% | - | - | 3.58 m/s, 162° | - | - |
| 1778019352 | 8.33° C | 99% | - | - | 2.68 m/s, 193° | - | - |
| 1778018769 | 8.33° C | 99% | - | - | 3.13 m/s, 186° | - | - |
| 1778018203 | 8.33° C | 99% | - | - | 0.89 m/s, 150° | - | - |
| 1778017604 | 8.33° C | 99% | - | - | 2.68 m/s, 156° | - | - |
| 1778017000 | 8.33° C | 99% | - | - | 3.58 m/s, 180° | - | - |
| 1778016415 | 8.33° C | 99% | - | - | 2.68 m/s, 193° | - | - |
| 1778015828 | 8.33° C | 99% | - | - | 2.24 m/s, 180° | - | - |
| 1778015225 | 7.78° C | 99% | - | - | 2.68 m/s, 167° | - | - |
| 1778014627 | 8.33° C | 99% | - | - | 2.24 m/s, 186° | - | - |
| 1778014027 | 7.78° C | 99% | - | - | 0.89 m/s, 193° | - | - |
| 1778013416 | 7.78° C | 99% | - | - | 1.79 m/s, 222° | - | - |
| 1778012776 | 7.78° C | 99% | - | - | 2.24 m/s, 210° | - | - |
| 1778012200 | 8.33° C | 99% | - | - | 2.24 m/s, 228° | - | - |
| 1778011638 | 8.33° C | 99% | - | - | 1.34 m/s, 264° | - | - |
* Rain since midnight (hover to see other rain measurements)
** Current wind speed in m/s (hover to see current wind gust speed)